Change the Weather History Date:

Friday, June 14, 2013

  Actual Average Record
Temperature  
Mean Temperature 70 °F -  
Max Temperature 80 °F 78 °F 91 °F (2005)
Min Temperature 59 °F 58 °F 53 °F (2011)
Cooling Degree Days 5    
Growing Degree Days 20 (Base 50)    
Moisture  
Dew Point 55 °F    
Average Humidity 63    
Maximum Humidity 100    
Minimum Humidity 36    
Precipitation  
Precipitation 0.00 in - - ()
Sea Level Pressure  
Sea Level Pressure 29.81 in    
Wind  
Wind Speed 13 mph (NNW)    
Max Wind Speed 22 mph    
Max Gust Speed 32 mph    
Visibility 10 miles    
Events      
Averages and records for this station are not official NWS values.
T = Trace of Precipitation, MM = Missing Value Source: NWS Daily Summary

Daily Weather History Graph

Daily Weather History Graph

Search for Another Location

Airport or City:

Trip Planner

Search our weather history database for the weather conditions in past years. The results will help you decide how hot, cold, wet, or windy it might be!

Date:

Astronomy

Jun. 14, 2013 Rise Set
Actual Time 5:44 AM EDT 8:36 PM EDT
Civil Twilight 5:12 AM EDT 9:08 PM EDT
Nautical Twilight 4:32 AM EDT 9:48 PM EDT
Astronomical Twilight 3:46 AM EDT 10:34 PM EDT
Moon 11:14 AM EDT (6/14) No Moon Set
Length of Visible Light 15h 55m
Length of Day
14h 51m
Waxing Crescent, 30% of the Moon is Illuminated
Jun 14
Waxing Crescent
Jun 16
First Quarter
Jun 23
Full
Jun 30
Last Quarter
Jul 8
New

Hourly Weather History & Observations

Time (EDT) Temp. Dew Point Humidity Pressure Visibility Wind Dir Wind Speed Gust Speed Precip Events Conditions
12:15 AM 69.8 °F 57.2 °F 64% 29.63 in 10.0 mi NW 13.8 mph 20.7 mph N/A   Unknown
12:35 AM 69.8 °F 55.4 °F 60% 29.64 in 10.0 mi NW 17.3 mph 20.7 mph N/A   Unknown
12:55 AM 69.8 °F 55.4 °F 60% 29.63 in 10.0 mi NW 17.3 mph 23.0 mph N/A   Unknown
1:15 AM 69.8 °F 55.4 °F 60% 29.64 in 10.0 mi NW 19.6 mph 26.5 mph N/A   Unknown
1:35 AM 69.8 °F 53.6 °F 56% 29.65 in 10.0 mi NW 15.0 mph 25.3 mph N/A   Unknown
1:55 AM 69.8 °F 55.4 °F 60% 29.65 in 10.0 mi NNW 12.7 mph 23.0 mph N/A   Unknown
2:15 AM 68.0 °F 55.4 °F 64% 29.65 in 10.0 mi NW 13.8 mph 19.6 mph N/A   Unknown
2:35 AM 68.0 °F 53.6 °F 60% 29.66 in 10.0 mi NW 19.6 mph 25.3 mph N/A   Unknown
2:55 AM 68.0 °F 53.6 °F 60% 29.67 in 10.0 mi NW 20.7 mph 26.5 mph N/A   Unknown
3:15 AM 68.0 °F 53.6 °F 60% 29.67 in 10.0 mi NW 21.9 mph 26.5 mph N/A   Unknown
3:35 AM 68.0 °F 53.6 °F 60% 29.69 in 10.0 mi NNW 12.7 mph 19.6 mph N/A   Unknown
3:55 AM 66.2 °F 53.6 °F 64% 29.70 in 10.0 mi NNW 16.1 mph 20.7 mph N/A   Unknown
4:15 AM 66.2 °F 53.6 °F 64% 29.71 in 10.0 mi NNW 11.5 mph 18.4 mph N/A   Unknown
4:35 AM 66.2 °F 53.6 °F 64% 29.71 in 10.0 mi NNW 16.1 mph 25.3 mph N/A   Unknown
4:55 AM 66.2 °F 53.6 °F 64% 29.73 in 10.0 mi NNW 11.5 mph 27.6 mph N/A   Unknown
5:15 AM 66.2 °F 53.6 °F 64% 29.74 in 10.0 mi North 19.6 mph 25.3 mph N/A   Unknown
5:35 AM 64.4 °F 55.4 °F 73% 29.75 in 10.0 mi NNW 13.8 mph 26.5 mph N/A   Unknown
5:55 AM 62.6 °F 55.4 °F 77% 29.76 in 10.0 mi NNW 9.2 mph - N/A   Unknown
6:15 AM 64.4 °F 55.4 °F 73% 29.77 in 10.0 mi North 10.4 mph 20.7 mph N/A   Unknown
6:35 AM 64.4 °F 57.2 °F 77% 29.78 in 10.0 mi North 9.2 mph 17.3 mph N/A   Unknown
6:55 AM 64.4 °F 55.4 °F 73% 29.78 in 10.0 mi North 8.1 mph - N/A   Unknown
7:15 AM 64.4 °F 57.2 °F 77% 29.79 in 10.0 mi North 8.1 mph - N/A   Unknown
7:35 AM 64.4 °F 57.2 °F 77% 29.80 in 10.0 mi NNW 5.8 mph - N/A   Unknown
7:55 AM 64.4 °F 57.2 °F 77% 29.81 in 10.0 mi NW 5.8 mph - N/A   Unknown
8:15 AM 64.4 °F 55.4 °F 73% 29.81 in 10.0 mi NNW 12.7 mph - N/A   Unknown
8:35 AM 66.2 °F 55.4 °F 68% 29.82 in 10.0 mi NNW 15.0 mph 21.9 mph N/A   Unknown
8:55 AM 68.0 °F 55.4 °F 64% 29.82 in 10.0 mi NNW 15.0 mph 18.4 mph N/A   Unknown
9:15 AM 69.8 °F 55.4 °F 60% 29.83 in 10.0 mi NNW 16.1 mph 25.3 mph N/A   Unknown
9:35 AM 68.0 °F 53.6 °F 60% 29.84 in 10.0 mi North 19.6 mph 28.8 mph N/A   Unknown
9:50 AM 69.8 °F 55.4 °F 60% 29.84 in 10.0 mi North 6.9 mph 28.8 mph N/A   Mostly Cloudy
9:55 AM 69.8 °F 55.4 °F 60% 29.84 in 10.0 mi North 15.0 mph 28.8 mph N/A   Unknown
10:15 AM 69.8 °F 55.4 °F 60% 29.86 in 10.0 mi North 18.4 mph 29.9 mph N/A   Unknown
10:35 AM 71.6 °F 53.6 °F 53% 29.87 in 10.0 mi North 20.7 mph 28.8 mph N/A   Unknown
10:45 AM 71.6 °F 51.8 °F 50% 29.88 in 10.0 mi North 19.6 mph 26.5 mph N/A   Scattered Clouds
10:55 AM 71.6 °F 51.8 °F 50% 29.88 in 10.0 mi North 17.3 mph 32.2 mph N/A   Unknown
11:45 AM 71.6 °F 48.2 °F 43% 29.90 in 10.0 mi NNE 18.4 mph 27.6 mph N/A   Scattered Clouds
12:55 PM 73.4 °F 51.8 °F 47% 29.90 in 10.0 mi North 15.0 mph 19.6 mph N/A   Scattered Clouds
2:55 PM 77.0 °F 53.6 °F 44% 29.91 in 10.0 mi North 11.5 mph 20.7 mph N/A   Mostly Cloudy
3:55 PM 78.8 °F 53.6 °F 42% 29.90 in 10.0 mi North 13.8 mph 20.7 mph N/A   Mostly Cloudy
4:55 PM 80.6 °F 51.8 °F 37% 29.90 in 10.0 mi NNW 12.7 mph 17.3 mph N/A   Mostly Cloudy
5:55 PM 78.8 °F 50.0 °F 36% 29.90 in 10.0 mi North 10.4 mph - N/A   Unknown
6:15 PM 78.8 °F 50.0 °F 36% 29.90 in 10.0 mi North 9.2 mph - N/A   Unknown
6:35 PM 78.8 °F 50.0 °F 36% 29.90 in 10.0 mi NNW 11.5 mph - N/A   Unknown
6:45 PM 78.8 °F 51.8 °F 39% 29.90 in 10.0 mi North 9.2 mph - N/A   Partly Cloudy
9:15 PM 69.8 °F 55.4 °F 60% 29.94 in 10.0 mi NW 4.6 mph - N/A   Unknown
9:35 PM 69.8 °F 55.4 °F 60% 29.95 in 10.0 mi West 3.5 mph - N/A   Unknown
9:55 PM 66.2 °F 57.2 °F 73% 29.96 in 10.0 mi Calm Calm - N/A   Unknown
10:15 PM 62.6 °F 59.0 °F 88% 29.97 in 10.0 mi Calm Calm - N/A   Unknown
10:35 PM 62.6 °F 57.2 °F 82% 29.97 in 10.0 mi Calm Calm - N/A   Unknown
10:55 PM 60.8 °F 59.0 °F 94% 29.98 in 10.0 mi SSE 3.5 mph - N/A   Unknown
11:15 PM 62.6 °F 59.0 °F 88% 29.98 in 10.0 mi Calm Calm - N/A   Unknown
11:35 PM 60.8 °F 59.0 °F 94% 29.99 in 10.0 mi SSE 3.5 mph - N/A   Unknown
11:55 PM 59.0 °F 59.0 °F 100% 30.00 in 10.0 mi Calm Calm - N/A   Unknown